Showing default

ASTRA 2A, 25462

Orbit data source: Space-Track

ASTRA 2A, 25462 is a payload satellite owned by SES (LU) in GEO that was launched on Sun, 30 Aug 1998 UTC via a PROTON-K/DM-2M launch vehicle from the Tyuratam Missile And Space Complex (TTMTR). Payload-class satellites include a variety of spacecraft equipped with specific instruments for various scientific and technological missions. These include communications satellites like Starlink; space stations such as the ISS; scientific satellites like the Hubble; Earth observation satellites from companies like Planet Labs, Umbra, and HawkEye 360; GPS; miniature CubeSats for education and research; and military/defense satellites.

Not visible in the next 10 days
Identifier
25462, 1998-050A
Orbit
GEO
Country
Flag of LULU / SES
Related business
Manufacturer
Hughes
Mission
Non-operational Commercial Communications
Bus & Motor
HS-601HP, X/R-4D11-300
Mass
~3,550 kg wet, ~1,950 kg dry
Launch date (UTC)
1998-08-30 (27 years ago)
Launch vehicle
PROTON-K/DM-2M
Launch site
Tyuratam Missile And Space Complex (TTMTR)
Object type
Payload
Rocket body
Debris
Shape & HBR
Box + 2 Wing, 13.0 m
Radar Cross Section
80.002 m², Large (>1 m²)

Expand to show TLE details & history
Last TLE update: 20 hours ago

TLE from 20 hours ago
0 ASTRA 2A
1 25462U 98050A   25346.55600146 -.00000237  00000-0  00000-0 0  9991
2 25462   6.6310  71.1872 0020504  69.3771 296.8690  0.98663555 44439
Epoch: 2025-12-12T13:20Z
TLE epoch observation values (Epoch: 2025-12-12T13:20:38.526Z)
Latitude
0.71472°
Longitude
155.52547°
Altitude
36,203.44 km
Speed
3.061 km/s
True Right ascension
05h 08m 43s
True Declination
0° 42' 50"
Sunlit
Object was in daylight at epoch
Visualization orbit readout
Latitude
Unknown
Longitude
Unknown
Altitude
Unknown
Speed
Unknown
Apparent Right ascension
Unknown
Apparent Declination
Unknown
Sunlit
N/A
Visualization observer readout
Local Sidereal Time
07:30:37
Azimuth
Unknown
Elevation
Unknown
Doppler factor
Unknown
Orbital elements
Apogee altitude
36,331.986 km
Perigee altitude
36,157.198 km
Semi-major axis
42,622.729 km
Eccentricity
0.00205
Inclination
6.631°
RAAN
71.1872°
Arg. of periapsis
69.3771°
True anomaly
296.65916°
Mean anomaly
296.869°
Eccentric anomaly
296.76411°
Mean motion
0.24665 °/min
Orbital period
1,459.56 mins
BSTAR
0
Loading maneuver chart data...
Computing Atmospheric mass density...
Loading historical data...
Loading historical data...
Loading historical data...
Loading historical data...
Loading historical data...
Loading historical data...
Loading historical data...

Documentation

Showing up to 5 results
|